Location: México DF
(19.4326°N, 99.1332°W)
Time: 01:40:39
(UTC+00:00)

ISS - Pass Details

Date: 13 May 2026
Orbit: 414 x 424 km, 51.6° (Epoch: 15 May)

Event Time Altitude Azimuth Distance (km) Brightness Sun altitude
Rises 00:58:45 0° 259° (W) 2,337 1.2 0.2°
Reaches altitude 10° 01:02:05 10° 296° (WNW) 1,476 1.2 -0.5°
Maximum altitude 01:03:12 11° 316° (NW) 1,399 0.2 -0.8°
Drops below altitude 10° 01:04:19 10° 335° (NNW) 1,476 -0.2 -1.0°
Sets 01:07:40 0° 12° (NNE) 2,339 0.1 -1.7°
